Regional Weather Roundup
Issued by NWS

Home | Current Version | Previous Version | Text Only | Print | Product List | Glossary On
Versions: 1 2 3 4 5 6 7 8 9 10 11 12 13 14 15 16 17 18 19 20 21 22 23 24 25 26 27 28 29 30 31 32 33 34 35 36 37 38 39 40 41 42 43 44 45 46 47 48 49 50
000
ASUS43 KMPX 280910
RWRMN
WEATHER ROUNDUP FOR MINNESOTA
NATIONAL WEATHER SERVICE TWIN CITIES/CHANHASSEN MN
400 AM CDT SAT MAR 28 2015


NOTE: "FAIR" INDICATES FEW OR NO CLOUDS BELOW 12,000 FEET WITH NO
SIGNIFICANT WEATHER AND/OR OBSTRUCTIONS TO VISIBILITY. N/A MEANS
CURRENT SKY AND/OR WEATHER CONDITIONS ARE NOT AVAILABLE.

MNZ060>063-068>070-281000-
   Twin Cities Metro

CITY           SKY/WX    TMP DP  RH WIND       PRES   REMARKS
TWIN CITIES    MOCLDY    24   7  48 E6        30.20R WCI  17
ST PAUL        MOCLDY    24  13  62 CALM      30.21S
CRYSTAL        CLOUDY    23  12  62 CALM      30.18S
BLAINE         MOCLDY    19  12  73 CALM      30.19R
LAKEVILLE      PTCLDY    18  10  73 CALM      30.18S
EDEN PRAIRIE   CLOUDY    23  10  57 CALM      30.18R
SOUTH ST PAUL  MOCLDY    22  14  72 CALM      30.20R
LAKE ELMO      FAIR      19  12  73 CALM      30.20R
$$
MNZ001>005-007-008-013>017-022>024-027-028-281000-
   Northwest Minnesota

CITY           SKY/WX    TMP DP  RH WIND       PRES   REMARKS
BEMIDJI        CLEAR     13   8  79 CALM      30.12R
HALLOCK        PTCLDY    23  19  86 SE9       30.10S WCI  13
ROSEAU         CLEAR     21  16  79 S5        30.11S WCI  15
WARROAD        CLEAR     19  16  86 CALM      30.12S
THIEF RVR FALL CLEAR     25  18  74 S5        30.11S WCI  19
CROOKSTON      CLEAR     21  18  86 SE8       30.12S WCI  12
FOSSTON        CLEAR     19  14  79 SE6       30.11F WCI  11
DETROIT LAKES  CLEAR     23  18  80 S5        30.12S WCI  17
MOORHEAD       CLEAR     25  19  80 SE6       30.12S WCI  18
PARK RAPIDS    CLEAR     19  10  68 SE3       30.11F
MAHNOMEN       FAIR      21  12  67 SE8       30.11S WCI  11
$$
MNZ006-009>011-018-025>026-281000-
   North Central Minnesota

CITY           SKY/WX    TMP DP  RH WIND       PRES   REMARKS
BAUDETTE       CLEAR     17  13  84 CALM      30.10F
FLAG ISLAND    CLEAR     18   9  68 CALM      30.10F
INTL FALLS     CLEAR     11   7  84 CALM      30.12F
WASKISH        CLEAR     12  10  92 CALM      30.11F
BIG FORK       CLEAR     10   7  85 CALM      30.13S
LONGVILLE      CLEAR     14  10  85 CALM      30.13S
GRAND RAPIDS   CLEAR     18   3  53 SE5       30.13S WCI  11
ORR            CLEAR     16   7  67 CALM      30.11F
COOK           CLEAR     10   7  85 CALM      30.15S
WALKER         FAIR      17   8  70 CALM      30.12S
$$
MNZ012-019>021-037-281000-
   Northeast Minnesota

CITY           SKY/WX    TMP DP  RH WIND       PRES   REMARKS
DULUTH         CLEAR     19  12  74 SE3       30.14F
ELY            CLEAR      9   5  85 CALM      30.15S
HIBBING        CLEAR      7   3  84 CALM      30.15S
EVELETH        CLEAR     10   5  79 CALM      30.15F
DULUTH HARBOR  CLEAR     21  16  79 CALM      30.21S
TWO HARBORS    CLEAR     14   9  79 CALM      30.16S
SILVER BAY     CLEAR      9   3  78 CALM      30.17S
GRAND MARAIS     N/A     11   7  84 NW5       30.22S WCI   3
G MARAIS ARPRT PTCLDY    -2  -9  71 CALM      30.13S
$$
MNZ029>031-032-039>041-046>048-054>057-064-281000-
   West Central Minnesota

CITY           SKY/WX    TMP DP  RH WIND       PRES   REMARKS
FERGUS FALLS   CLEAR     25  14  63 SE8       30.15S WCI  16
WHEATON        CLOUDY    27  23  86 SE7       30.13S WCI  19
MORRIS         MOCLDY    28  23  80 SE7       30.12R WCI  21
ALEXANDRIA     CLOUDY    24  16  71 SE6       30.13S WCI  17
ELBOW LAKE     FAIR      24  18  77 SE6       30.12S WCI  17
WADENA         CLOUDY    23  16  74 CALM      30.12S
GLENWOOD       PTCLDY    21  18  86 SE3       30.13F
APPLETON       MOCLDY    30  25  80 SE5       30.13S WCI  25
BENSON         CLOUDY    28  21  74 S5        30.14R WCI  23
ORTONVILLE     CLOUDY    28  25  86 SE7       30.11S WCI  21
MADISON        CLOUDY    28  25  86 SE7       30.12S WCI  21
WILLMAR        FAIR      27  19  74 SE6       30.15S WCI  20
$$
MNZ033>034-036-042>043-049>051-058-059-281000-
   Central Minnesota

CITY           SKY/WX    TMP DP  RH WIND       PRES   REMARKS
ST CLOUD       PTCLDY    20  12  71 SE3       30.17S
SAUK CENTRE    CLOUDY    26  16  66 SE6       30.14F WCI  19
PAYNESVILLE    CLOUDY    24  14  67 E5        30.15F WCI  18
AITKIN         CLEAR     16  10  79 CALM      30.14S
PINE RIVER     CLEAR     16  12  86 CALM      30.16F
BRAINERD       CLEAR     16  10  77 CALM      30.15F
STAPLES        CLEAR     19  12  73 CALM      30.13F
LONG PRAIRIE   CLOUDY    27  14  59 SE7       30.14S WCI  19
LITTLE FALLS   CLEAR     21  14  73 CALM      30.16F
LITCHFIELD     CLOUDY    25  18  74 CALM      30.16S
BUFFALO        CLOUDY    23  16  74 CALM      30.19R
MAPLE LAKE     CLOUDY    25  18  76 CALM      30.19R
$$
MNZ037-044-045-052-053-281000-
   East Central Minnesota

CITY           SKY/WX    TMP DP  RH WIND       PRES   REMARKS
PRINCETON      CLEAR     18  14  86 CALM      30.17F
MORA           CLEAR     18  14  86 CALM      30.19S
CAMBRIDGE      CLEAR     19  10  68 CALM      30.17S
RUSH CITY      CLEAR     17  13  86 CALM      30.19S
MOOSE LAKE     CLEAR     16  10  79 CALM      30.16S
HINCKLEY       FAIR      18  14  86 CALM      30.18S
CLOQUET        CLEAR     12  10  92 CALM      30.15
MCGREGOR       CLEAR     18  10  73 CALM      30.16S
$$
MNZ071>073-080-081-089-090-097-098-281000-
   Southwest Minnesota

CITY           SKY/WX    TMP DP  RH WIND       PRES   REMARKS
MONTEVIDEO     CLOUDY    28  27  93 S6        30.14S WCI  22
GRANITE FALLS  CLOUDY    29  26  86 SE6       30.15S WCI  23
CANBY          CLOUDY    28  26  90 SE5       30.12S WCI  23
MARSHALL       CLOUDY    27  23  86 S9        30.12F WCI  17
REDWOOD FALLS  CLOUDY    29  26  89 SE5       30.14F WCI  24
OLIVIA         MOCLDY    27  23  86 E5        30.14S WCI  21
PIPESTONE      CLOUDY    28  27  93 SE10      30.08S WCI  19
WINDOM         CLOUDY    28  27  93 CALM      30.13S
WORTHINGTON    CLOUDY    27  23  86 SE7       30.12S WCI  19
JACKSON        CLOUDY    30  28  93 E3        30.13S
TRACY          CLOUDY    28  27  93 SE5       30.12S WCI  23
SLAYTON        CLOUDY    27  26  94 CALM      30.11S
$$
MNZ065>067-074>077-082>085-091>093-281000-
   South Central Minnesota

CITY           SKY/WX    TMP DP  RH WIND       PRES   REMARKS
MANKATO        CLEAR     21  12  68 SE7       30.16F WCI  13
NEW ULM        CLOUDY    25  19  80 SE3       30.16S
ST JAMES       CLOUDY    30  25  80 SE3       30.16S
FAIRMONT       CLOUDY    27  19  74 SE5       30.14S WCI  21
GLENCOE        CLEAR     21  15  78 CALM      30.17R
FARIBAULT      CLOUDY    23  10  58 CALM      30.18R
OWATONNA       CLOUDY    21  12  68 SE8       30.16S WCI  12
WASECA         CLEAR     21  16  79 E5        30.18S WCI  15
ALBERT LEA     CLOUDY    25  16  68 S6        30.16S WCI  18
$$
MNZ078>079-086>088-094>096-281000-
   Southeast Minnesota

CITY           SKY/WX    TMP DP  RH WIND       PRES   REMARKS
ROCHESTER      PTCLDY    17  10  74 S7        30.16F WCI   8
RED WING       CLEAR     19  14  79 CALM      30.20R
STANTON        PTCLDY    20  11  69 CALM      30.18R
DODGE CENTER   PTCLDY    18  10  73 CALM      30.16S
WINONA         MOCLDY    21  18  86 CALM      30.22S
AUSTIN         PTCLDY    19  14  79 CALM      30.17S
PRESTON        PTCLDY    15  11  84 SE3       30.18R
$$
ABBREVIATIONS USED IN REMARKS
   TC - TEMPERATURES IN CELSIUS
  WCI - WIND CHILL INDEX
   HX - HEAT INDEX
  VSB - VISIBILITY
$$



USA.gov is the U.S. government's official web portal to all federal, state and local government web resources and services.